^^
Datos históricos de la estación: Murcia-Puente Tocinos
Diario Informe para Junio 9, 2019 Unidades:  Métrico    Inglés   Ambas
Diario Semanal Mensual Anual Configurable
  Máximo: Mínimo: Media:
Temperatura: 29.3 °C 19.3 °C 23.9 °C
Punto de rocio: 15.6 °C 11.0 °C 13 °C
Humedad: 67% 33% 52%
Velocidad viento: 19.8km/h 0.0km/h 8.3km/h
Racha viento: 29.6km/h - -
Viento- - SSW
Presión: 1017.0 hPa 1010.7 hPa -
Precipitación: 0.0 mm    
Historical Graphs
 
 
Tabla de datos para Junio 9, 2019
Hora Temperatura Punto de rocio Presión Viento Velocidad viento Racha viento Humedad Intensidad lluvia(por hora) Nubes
00:04 21.7 °C 12.6 °C 1016.7 hPa ESE 5.0 km/h 7.4 km/h 56% 0.0 mm CLR
00:09 21.7 °C 12.8 °C 1016.7 hPa East 3.2 km/h 9.3 km/h 57% 0.0 mm CLR
00:14 21.7 °C 12.8 °C 1016.7 hPa NNE 3.2 km/h 7.4 km/h 57% 0.0 mm CLR
00:19 21.7 °C 12.8 °C 1016.7 hPa NW 4.7 km/h 5.6 km/h 57% 0.0 mm CLR
00:24 21.6 °C 12.7 °C 1016.7 hPa NNW 4.7 km/h 7.4 km/h 57% 0.0 mm CLR
00:29 21.6 °C 12.7 °C 1016.7 hPa NW 3.9 km/h 7.4 km/h 57% 0.0 mm CLR
00:34 21.5 °C 12.9 °C 1016.8 hPa NW 3.9 km/h 9.3 km/h 58% 0.0 mm CLR
00:39 21.4 °C 13.1 °C 1016.8 hPa NW 5.0 km/h 7.4 km/h 59% 0.0 mm CLR
00:44 21.4 °C 13.1 °C 1016.8 hPa NNW 5.0 km/h 9.3 km/h 59% 0.0 mm CLR
00:49 21.3 °C 13.2 °C 1016.9 hPa North 5.0 km/h 5.6 km/h 60% 0.0 mm CLR
00:54 21.3 °C 13.2 °C 1016.9 hPa NNE 5.0 km/h 9.3 km/h 60% 0.0 mm CLR
00:59 21.2 °C 13.4 °C 1016.9 hPa NNE 5.0 km/h 11.1 km/h 61% 0.0 mm CLR
01:04 21.1 °C 13.3 °C 1016.9 hPa NE 5.0 km/h 7.4 km/h 61% 0.0 mm CLR
01:09 21.1 °C 13.6 °C 1016.9 hPa NNE 5.0 km/h 5.6 km/h 62% 0.0 mm CLR
01:14 21.1 °C 13.6 °C 1016.9 hPa NNE 5.0 km/h 3.7 km/h 62% 0.0 mm CLR
01:19 21.1 °C 13.6 °C 1017.0 hPa NNE 2.3 km/h 3.2 km/h 62% 0.0 mm CLR
01:24 21.1 °C 13.6 °C 1017.0 hPa NW 2.3 km/h 5.6 km/h 62% 0.0 mm CLR
01:29 21.0 °C 13.4 °C 1017.0 hPa NW 2.9 km/h   62% 0.0 mm CLR
01:34 20.9 °C 13.3 °C 1016.8 hPa NW 2.9 km/h 3.2 km/h 62% 0.0 mm CLR
01:39 21.0 °C 13.4 °C 1016.8 hPa West 2.3 km/h 3.7 km/h 62% 0.0 mm CLR
01:44 21.0 °C 13.4 °C 1016.8 hPa West 2.3 km/h 3.7 km/h 62% 0.0 mm CLR
01:49 20.9 °C 13.3 °C 1016.7 hPa West 2.3 km/h 3.7 km/h 62% 0.0 mm CLR
01:54 21.0 °C 13.4 °C 1016.7 hPa SW 2.3 km/h 9.3 km/h 62% 0.0 mm CLR
01:59 21.0 °C 13.4 °C 1016.7 hPa SW 3.2 km/h 9.3 km/h 62% 0.0 mm CLR
02:04 21.1 °C 13.6 °C 1016.7 hPa SW 3.2 km/h 11.1 km/h 62% 0.0 mm CLR
02:09 21.0 °C 13.4 °C 1016.7 hPa WSW 5.8 km/h 9.5 km/h 62% 0.0 mm CLR
02:14 21.0 °C 13.4 °C 1016.7 hPa WSW 5.8 km/h 16.7 km/h 62% 0.0 mm CLR
02:19 20.9 °C 13.6 °C 1016.5 hPa SSW 8.4 km/h 13.0 km/h 63% 0.0 mm CLR
02:24 20.9 °C 13.8 °C 1016.5 hPa SSW 8.4 km/h 16.7 km/h 64% 0.0 mm CLR
02:29 20.8 °C 14.0 °C 1016.5 hPa SSW 10.0 km/h 13.0 km/h 65% 0.0 mm CLR
02:34 20.7 °C 13.9 °C 1016.1 hPa SSW 10.0 km/h 11.1 km/h 65% 0.0 mm CLR
02:39 20.6 °C 14.0 °C 1016.1 hPa SSW 10.0 km/h 16.7 km/h 66% 0.0 mm CLR
02:44 20.5 °C 13.9 °C 1016.1 hPa SW 10.0 km/h 11.1 km/h 66% 0.0 mm CLR
02:49 20.4 °C 14.1 °C 1015.9 hPa SW 8.7 km/h 9.5 km/h 67% 0.0 mm CLR
02:54 20.4 °C 14.1 °C 1015.9 hPa SW 8.7 km/h 9.5 km/h 67% 0.0 mm CLR
02:59 20.4 °C 14.1 °C 1015.9 hPa SSW 5.8 km/h 9.3 km/h 67% 0.0 mm CLR
03:04 20.4 °C 13.8 °C 1015.6 hPa SSW 5.8 km/h 10.0 km/h 66% 0.0 mm CLR
03:09 20.4 °C 13.8 °C 1015.6 hPa SW 6.9 km/h 9.3 km/h 66% 0.0 mm CLR
03:14 20.4 °C 13.8 °C 1015.6 hPa WSW 6.9 km/h 9.3 km/h 66% 0.0 mm CLR
03:19 20.4 °C 13.8 °C 1015.5 hPa SW 5.8 km/h 16.1 km/h 66% 0.0 mm CLR
03:24 20.4 °C 13.8 °C 1015.5 hPa WSW 5.8 km/h 11.1 km/h 66% 0.0 mm CLR
03:29 20.4 °C 13.8 °C 1015.5 hPa SSW 9.5 km/h 13.0 km/h 66% 0.0 mm CLR
03:34 20.4 °C 13.6 °C 1015.5 hPa SW 9.5 km/h 13.0 km/h 65% 0.0 mm CLR
03:39 20.4 °C 13.6 °C 1015.5 hPa WSW 8.7 km/h 13.0 km/h 65% 0.0 mm CLR
03:44 20.4 °C 13.6 °C 1015.5 hPa SSW 8.7 km/h 14.8 km/h 65% 0.0 mm CLR
03:49 20.4 °C 13.6 °C 1015.3 hPa SSW 9.5 km/h 13.0 km/h 65% 0.0 mm CLR
03:54 20.3 °C 13.5 °C 1015.3 hPa SW 9.5 km/h 11.9 km/h 65% 0.0 mm CLR
03:59 20.3 °C 13.5 °C 1015.3 hPa SW 8.4 km/h 9.3 km/h 65% 0.0 mm CLR
04:04 20.3 °C 13.5 °C 1015.4 hPa SW 8.4 km/h 7.4 km/h 65% 0.0 mm CLR
04:09 20.3 °C 13.5 °C 1015.4 hPa WSW 5.0 km/h 7.4 km/h 65% 0.0 mm CLR
04:14 20.3 °C 13.5 °C 1015.4 hPa SSW 5.0 km/h 13.0 km/h 65% 0.0 mm CLR
04:19 20.3 °C 13.5 °C 1015.0 hPa West 6.4 km/h 7.4 km/h 65% 0.0 mm CLR
04:24 20.3 °C 13.3 °C 1015.0 hPa SW 6.4 km/h 7.4 km/h 64% 0.0 mm CLR
04:29 20.3 °C 13.3 °C 1015.0 hPa SSW 5.0 km/h 11.1 km/h 64% 0.0 mm CLR
04:34 20.3 °C 13.0 °C 1014.9 hPa SSW 5.0 km/h 11.1 km/h 63% 0.0 mm CLR
04:39 20.3 °C 13.0 °C 1014.9 hPa WSW 7.6 km/h 13.0 km/h 63% 0.0 mm CLR
04:44 20.4 °C 12.9 °C 1014.9 hPa WSW 7.6 km/h 9.3 km/h 62% 0.0 mm CLR
04:49 20.4 °C 12.9 °C 1014.8 hPa SW 6.9 km/h 14.8 km/h 62% 0.0 mm CLR
04:54 20.4 °C 12.6 °C 1014.8 hPa SW 6.9 km/h 11.1 km/h 61% 0.0 mm CLR
04:59 20.4 °C 12.6 °C 1014.8 hPa SW 8.7 km/h 9.3 km/h 61% 0.0 mm CLR
05:04 20.4 °C 12.6 °C 1014.8 hPa SSW 8.7 km/h 9.3 km/h 61% 0.0 mm CLR
05:09 20.3 °C 12.8 °C 1014.8 hPa SSW 5.8 km/h 9.5 km/h 62% 0.0 mm CLR
05:14 20.3 °C 12.8 °C 1014.8 hPa SSE 5.8 km/h 9.3 km/h 62% 0.0 mm CLR
05:19 20.2 °C 12.9 °C 1014.1 hPa South 6.9 km/h 7.4 km/h 63% 0.0 mm CLR
05:24 20.1 °C 12.8 °C 1014.1 hPa SE 6.9 km/h 8.4 km/h 63% 0.0 mm CLR
05:29 20.0 °C 13.0 °C 1014.1 hPa SSW 5.8 km/h 9.3 km/h 64% 0.0 mm CLR
05:34 19.8 °C 12.8 °C 1014.4 hPa South 5.8 km/h 10.0 km/h 64% 0.0 mm CLR
05:39 19.8 °C 13.1 °C 1014.4 hPa SSW 6.9 km/h 7.6 km/h 65% 0.0 mm CLR
05:44 19.8 °C 12.8 °C 1014.4 hPa SW 6.9 km/h 9.3 km/h 64% 0.0 mm CLR
05:49 19.9 °C 12.9 °C 1014.4 hPa WSW 6.4 km/h 9.3 km/h 64% 0.0 mm CLR
05:54 19.9 °C 12.7 °C 1014.4 hPa West 6.4 km/h 7.4 km/h 63% 0.0 mm CLR
05:59 20.0 °C 12.5 °C 1014.4 hPa WSW 5.8 km/h 7.4 km/h 62% 0.0 mm CLR
06:04 20.1 °C 12.6 °C 1014.5 hPa SW 5.8 km/h 9.3 km/h 62% 0.0 mm CLR
06:09 20.1 °C 12.6 °C 1014.5 hPa SW 5.0 km/h 7.4 km/h 62% 0.0 mm CLR
06:14 20.1 °C 12.3 °C 1014.5 hPa SW 5.0 km/h 11.1 km/h 61% 0.0 mm CLR
06:19 20.1 °C 12.6 °C 1014.7 hPa SSE 6.4 km/h 9.5 km/h 62% 0.0 mm CLR
06:24 19.9 °C 12.7 °C 1014.7 hPa SSW 6.4 km/h 7.4 km/h 63% 0.0 mm CLR
06:29 19.8 °C 12.6 °C 1014.7 hPa South 6.9 km/h 11.1 km/h 63% 0.0 mm CLR
06:34 19.8 °C 12.3 °C 1014.6 hPa SSE 6.9 km/h 7.4 km/h 62% 0.0 mm CLR
06:39 19.8 °C 12.3 °C 1014.6 hPa South 5.8 km/h 11.1 km/h 62% 0.0 mm CLR
06:44 19.7 °C 12.7 °C 1014.6 hPa SSE 5.8 km/h 9.3 km/h 64% 0.0 mm CLR
06:49 19.5 °C 12.7 °C 1014.7 hPa SSW 7.6 km/h 9.5 km/h 65% 0.0 mm CLR
06:54 19.4 °C 12.7 °C 1014.7 hPa SSW 7.6 km/h 9.3 km/h 65% 0.0 mm CLR
06:59 19.3 °C 12.6 °C 1014.7 hPa SW 6.4 km/h 7.4 km/h 65% 0.0 mm CLR
07:04 19.3 °C 12.6 °C 1014.7 hPa SSW 6.4 km/h 5.6 km/h 65% 0.0 mm CLR
07:09 19.4 °C 12.7 °C 1014.7 hPa SSE 4.7 km/h 8.4 km/h 65% 0.0 mm CLR
07:14 19.5 °C 12.7 °C 1014.7 hPa SE 4.7 km/h 9.3 km/h 65% 0.0 mm CLR
07:19 19.5 °C 12.7 °C 1014.7 hPa SSE 6.4 km/h 5.6 km/h 65% 0.0 mm CLR
07:24 19.6 °C 12.6 °C 1014.7 hPa SE 6.4 km/h 5.6 km/h 64% 0.0 mm CLR
07:29 19.6 °C 12.6 °C 1014.7 hPa South 3.9 km/h 11.1 km/h 64% 0.0 mm CLR
07:34 19.5 °C 12.7 °C 1014.5 hPa SE 3.9 km/h 11.1 km/h 65% 0.0 mm CLR
07:39 19.4 °C 12.7 °C 1014.5 hPa SE 6.9 km/h 7.6 km/h 65% 0.0 mm CLR
07:44 19.4 °C 12.7 °C 1014.5 hPa SE 6.9 km/h 7.4 km/h 65% 0.0 mm CLR
07:49 19.4 °C 12.7 °C 1014.5 hPa South 5.0 km/h 7.4 km/h 65% 0.0 mm CLR
07:54 19.4 °C 12.7 °C 1014.5 hPa SSW 5.0 km/h 5.8 km/h 65% 0.0 mm CLR
07:59 19.4 °C 12.7 °C 1014.5 hPa SSW 4.7 km/h 3.7 km/h 65% 0.0 mm CLR
08:04 19.5 °C 12.7 °C 1014.6 hPa South 4.7 km/h 5.6 km/h 65% 0.0 mm CLR
08:09 19.7 °C 12.9 °C 1014.6 hPa SE 2.9 km/h 7.4 km/h 65% 0.0 mm CLR
08:14 19.7 °C 12.7 °C 1014.6 hPa SE 2.9 km/h 13.0 km/h 64% 0.0 mm CLR
08:19 19.6 °C 12.8 °C 1014.8 hPa SE 6.9 km/h 11.1 km/h 65% 0.0 mm CLR
08:24 19.7 °C 12.7 °C 1014.8 hPa South 6.9 km/h 13.0 km/h 64% 0.0 mm CLR
08:29 19.7 °C 12.7 °C 1014.8 hPa South 8.4 km/h 13.0 km/h 64% 0.0 mm CLR
08:34 19.7 °C 12.7 °C 1014.7 hPa South 8.4 km/h 9.3 km/h 64% 0.0 mm CLR
08:39 19.9 °C 12.4 °C 1014.7 hPa WSW 6.9 km/h 11.1 km/h 62% 0.0 mm CLR
08:44 20.3 °C 12.3 °C 1014.7 hPa WSW 6.9 km/h 16.7 km/h 60% 0.0 mm CLR
08:49 20.6 °C 12.3 °C 1014.9 hPa West 8.4 km/h 12.2 km/h 59% 0.0 mm CLR
08:54 20.7 °C 12.1 °C 1014.9 hPa West 8.4 km/h 13.0 km/h 58% 0.0 mm CLR
08:59 20.8 °C 12.2 °C 1014.9 hPa SSW 8.7 km/h 13.0 km/h 58% 0.0 mm CLR
09:04 20.8 °C 12.2 °C 1014.8 hPa SSW 8.7 km/h 14.8 km/h 58% 0.0 mm CLR
09:09 20.9 °C 12.3 °C 1014.8 hPa South 10.0 km/h 13.7 km/h 58% 0.0 mm CLR
09:14 20.9 °C 12.3 °C 1014.8 hPa SSW 10.0 km/h 16.7 km/h 58% 0.0 mm CLR
09:19 21.1 °C 12.2 °C 1014.9 hPa SW 10.3 km/h 13.7 km/h 57% 0.0 mm CLR
09:24 21.2 °C 12.3 °C 1014.9 hPa SW 10.3 km/h 18.5 km/h 57% 0.0 mm CLR
09:29 21.3 °C 12.2 °C 1014.9 hPa WSW 10.3 km/h 13.7 km/h 56% 0.0 mm CLR
09:34 21.5 °C 12.1 °C 1014.8 hPa WSW 10.3 km/h 14.8 km/h 55% 0.0 mm CLR
09:39 21.6 °C 12.2 °C 1014.8 hPa SW 10.0 km/h 18.5 km/h 55% 0.0 mm CLR
09:44 21.7 °C 12.3 °C 1014.8 hPa SSW 10.0 km/h 13.0 km/h 55% 0.0 mm CLR
09:49 21.8 °C 12.1 °C 1014.8 hPa South 8.7 km/h 14.8 km/h 54% 0.0 mm CLR
09:54 22.0 °C 12.3 °C 1014.8 hPa SW 8.7 km/h 9.3 km/h 54% 0.0 mm CLR
09:59 22.3 °C 11.9 °C 1014.8 hPa SW 7.6 km/h 11.1 km/h 52% 0.0 mm CLR
10:04 22.4 °C 11.8 °C 1014.6 hPa South 7.6 km/h 11.9 km/h 51% 0.0 mm CLR
10:09 22.4 °C 11.8 °C 1014.6 hPa SW 8.7 km/h 13.0 km/h 51% 0.0 mm CLR
10:14 22.5 °C 11.8 °C 1014.6 hPa West 8.7 km/h 13.7 km/h 51% 0.0 mm CLR
10:19 22.9 °C 11.9 °C 1014.6 hPa SSW 8.7 km/h 11.1 km/h 50% 0.0 mm CLR
10:24 23.2 °C 11.9 °C 1014.6 hPa SW 8.7 km/h 14.8 km/h 49% 0.0 mm CLR
10:29 23.2 °C 11.9 °C 1014.6 hPa WSW 10.3 km/h 16.7 km/h 49% 0.0 mm CLR
10:34 23.4 °C 11.8 °C 1014.6 hPa SW 10.3 km/h 11.1 km/h 48% 0.0 mm CLR
10:39 23.6 °C 11.6 °C 1014.6 hPa WSW 7.6 km/h 14.8 km/h 47% 0.0 mm CLR
10:44 23.8 °C 11.8 °C 1014.6 hPa SW 7.6 km/h 13.0 km/h 47% 0.0 mm CLR
10:49 24.0 °C 12.0 °C 1014.5 hPa South 9.5 km/h 7.4 km/h 47% 0.0 mm CLR
10:54 24.4 °C 12.0 °C 1014.5 hPa South 9.5 km/h 14.8 km/h 46% 0.0 mm CLR
10:59 24.8 °C 12.1 °C 1014.5 hPa WSW 7.6 km/h 13.0 km/h 45% 0.0 mm CLR
11:04 24.9 °C 11.8 °C 1014.5 hPa SSW 7.6 km/h 10.0 km/h 44% 0.0 mm CLR
11:09 24.8 °C 11.4 °C 1014.5 hPa West 8.7 km/h 9.3 km/h 43% 0.0 mm CLR
11:14 25.1 °C 11.3 °C 1014.5 hPa SW 8.7 km/h 14.8 km/h 42% 0.0 mm CLR
11:19 25.4 °C 11.2 °C 1014.6 hPa WSW 8.7 km/h 14.8 km/h 41% 0.0 mm CLR
11:24 25.5 °C 11.3 °C 1014.6 hPa SW 8.7 km/h 18.5 km/h 41% 0.0 mm CLR
11:29 25.4 °C 11.2 °C 1014.6 hPa WSW 10.3 km/h 15.6 km/h 41% 0.0 mm CLR
11:34 25.2 °C 11.0 °C 1014.5 hPa SSW 10.3 km/h 18.5 km/h 41% 0.0 mm CLR
11:39 25.2 °C 11.4 °C 1014.5 hPa WNW 10.0 km/h 14.8 km/h 42% 0.0 mm CLR
11:44 25.3 °C 11.8 °C 1014.5 hPa West 10.0 km/h 11.1 km/h 43% 0.0 mm CLR
11:49 25.2 °C 11.7 °C 1014.3 hPa SW 9.5 km/h 5.6 km/h 43% 0.0 mm CLR
11:54 25.4 °C 11.9 °C 1014.3 hPa WNW 9.5 km/h 7.6 km/h 43% 0.0 mm CLR
11:59 25.3 °C 11.8 °C 1014.3 hPa WNW 5.0 km/h 11.1 km/h 43% 0.0 mm CLR
12:04 25.3 °C 11.8 °C 1014.2 hPa NNW 5.0 km/h 13.0 km/h 43% 0.0 mm CLR
12:09 25.2 °C 12.1 °C 1014.2 hPa West 8.7 km/h 13.0 km/h 44% 0.0 mm CLR
12:14 25.2 °C 12.1 °C 1014.2 hPa WSW 8.7 km/h 9.5 km/h 44% 0.0 mm CLR
12:19 25.2 °C 12.1 °C 1014.2 hPa West 6.9 km/h 13.0 km/h 44% 0.0 mm CLR
12:24 25.2 °C 12.1 °C 1014.2 hPa SW 6.9 km/h 3.9 km/h 44% 0.0 mm CLR
12:29 25.3 °C 11.8 °C 1014.2 hPa WNW 5.8 km/h 13.0 km/h 43% 0.0 mm CLR
12:34 25.3 °C 11.8 °C 1013.9 hPa WNW 5.8 km/h 14.8 km/h 43% 0.0 mm CLR
12:39 25.3 °C 12.2 °C 1013.9 hPa West 8.4 km/h 11.1 km/h 44% 0.0 mm CLR
12:44 25.3 °C 11.8 °C 1013.9 hPa WSW 8.4 km/h 7.4 km/h 43% 0.0 mm CLR
12:49 25.3 °C 11.8 °C 1013.9 hPa NNW 6.9 km/h 11.1 km/h 43% 0.0 mm CLR
12:54 25.4 °C 11.9 °C 1013.9 hPa WNW 6.9 km/h 8.4 km/h 43% 0.0 mm CLR
12:59 25.4 °C 12.3 °C 1013.9 hPa NW 6.9 km/h 7.4 km/h 44% 0.0 mm CLR
13:04 25.6 °C 12.4 °C 1013.7 hPa WSW 6.9 km/h 6.9 km/h 44% 0.0 mm CLR
13:09 25.7 °C 12.6 °C 1013.7 hPa WSW 4.7 km/h 9.3 km/h 44% 0.0 mm CLR
13:14 25.6 °C 12.1 °C 1013.7 hPa West 4.7 km/h 9.5 km/h 43% 0.0 mm CLR
13:19 25.5 °C 12.0 °C 1013.6 hPa West 6.4 km/h 11.9 km/h 43% 0.0 mm CLR
13:24 25.5 °C 12.0 °C 1013.6 hPa WNW 6.4 km/h 7.4 km/h 43% 0.0 mm CLR
13:29 25.6 °C 12.1 °C 1013.6 hPa NW 6.9 km/h 11.1 km/h 43% 0.0 mm CLR
13:34 25.6 °C 11.7 °C 1013.4 hPa West 6.9 km/h 14.8 km/h 42% 0.0 mm CLR
13:39 25.7 °C 11.8 °C 1013.4 hPa West 8.4 km/h 9.5 km/h 42% 0.0 mm CLR
13:44 25.7 °C 11.8 °C 1013.4 hPa WSW 8.4 km/h 13.0 km/h 42% 0.0 mm CLR
13:49 25.8 °C 11.9 °C 1013.4 hPa SW 6.4 km/h 11.1 km/h 42% 0.0 mm CLR
13:54 26.1 °C 12.2 °C 1013.4 hPa SSW 6.4 km/h 9.3 km/h 42% 0.0 mm CLR
13:59 26.3 °C 12.0 °C 1013.4 hPa SW 6.9 km/h 13.0 km/h 41% 0.0 mm CLR
14:04 26.3 °C 11.6 °C 1013.3 hPa SSW 6.9 km/h 11.1 km/h 40% 0.0 mm CLR
14:09 26.4 °C 12.1 °C 1013.3 hPa SSE 5.8 km/h 7.4 km/h 41% 0.0 mm CLR
14:14 26.6 °C 11.9 °C 1013.3 hPa SSE 5.8 km/h 11.1 km/h 40% 0.0 mm CLR
14:19 26.7 °C 12.0 °C 1013.1 hPa South 5.8 km/h 10.0 km/h 40% 0.0 mm CLR
14:24 27.0 °C 11.9 °C 1013.1 hPa WSW 5.8 km/h 10.3 km/h 39% 0.0 mm CLR
14:29 27.3 °C 12.1 °C 1013.1 hPa NNW 5.8 km/h 9.3 km/h 39% 0.0 mm CLR
14:34 27.6 °C 12.0 °C 1012.8 hPa NNE 5.8 km/h 7.4 km/h 38% 0.0 mm CLR
14:39 27.7 °C 12.1 °C 1012.8 hPa SE 5.0 km/h 11.1 km/h 38% 0.0 mm CLR
14:44 27.6 °C 12.0 °C 1012.8 hPa East 5.0 km/h 3.7 km/h 38% 0.0 mm CLR
14:49 27.7 °C 12.1 °C 1012.5 hPa WSW 4.7 km/h 9.3 km/h 38% 0.0 mm CLR
14:54 27.8 °C 12.2 °C 1012.5 hPa WSW 4.7 km/h 7.4 km/h 38% 0.0 mm CLR
14:59 27.8 °C 12.2 °C 1012.5 hPa WNW 5.0 km/h 9.3 km/h 38% 0.0 mm CLR
15:04 27.9 °C 11.9 °C 1012.3 hPa South 5.0 km/h 11.1 km/h 37% 0.0 mm CLR
15:09 27.9 °C 11.9 °C 1012.3 hPa WNW 5.8 km/h 7.6 km/h 37% 0.0 mm CLR
15:14 28.1 °C 12.1 °C 1012.3 hPa ENE 5.8 km/h 7.4 km/h 37% 0.0 mm CLR
15:19 28.3 °C 11.8 °C 1012.0 hPa ENE 4.7 km/h 7.4 km/h 36% 0.0 mm CLR
15:24 28.5 °C 11.1 °C 1012.0 hPa East 4.7 km/h 13.0 km/h 34% 0.0 mm CLR
15:29 28.6 °C 11.6 °C 1012.0 hPa SW 5.0 km/h 7.4 km/h 35% 0.0 mm CLR
15:34 28.7 °C 11.3 °C 1011.9 hPa ESE 5.0 km/h 11.1 km/h 34% 0.0 mm CLR
15:39 28.7 °C 11.3 °C 1011.9 hPa SSE 6.9 km/h 10.0 km/h 34% 0.0 mm CLR
15:44 28.7 °C 11.3 °C 1011.9 hPa WSW 6.9 km/h 9.3 km/h 34% 0.0 mm CLR
15:49 28.6 °C 11.2 °C 1011.8 hPa SSE 6.9 km/h 9.3 km/h 34% 0.0 mm CLR
15:54 28.7 °C 11.3 °C 1011.8 hPa SW 6.9 km/h 7.4 km/h 34% 0.0 mm CLR
15:59 28.8 °C 11.4 °C 1011.8 hPa ESE 5.0 km/h 12.2 km/h 34% 0.0 mm CLR
16:04 29.2 °C 11.3 °C 1011.7 hPa East 5.0 km/h 9.3 km/h 33% 0.0 mm CLR
16:09 29.3 °C 13.1 °C 1011.7 hPa ESE 6.4 km/h 20.4 km/h 37% 0.0 mm CLR
16:14 29.2 °C 13.4 °C 1011.7 hPa ESE 6.4 km/h 24.1 km/h 38% 0.0 mm CLR
16:19 29.1 °C 13.7 °C 1011.5 hPa SE 15.6 km/h 21.7 km/h 39% 0.0 mm CLR
16:24 28.8 °C 13.4 °C 1011.5 hPa ESE 15.6 km/h 24.1 km/h 39% 0.0 mm CLR
16:29 28.4 °C 13.5 °C 1011.5 hPa East 16.1 km/h 22.2 km/h 40% 0.0 mm CLR
16:34 28.6 °C 13.7 °C 1011.3 hPa ESE 16.1 km/h 20.4 km/h 40% 0.0 mm CLR
16:39 28.6 °C 13.7 °C 1011.3 hPa NE 14.0 km/h 18.5 km/h 40% 0.0 mm CLR
16:44 28.6 °C 13.7 °C 1011.3 hPa ESE 14.0 km/h 22.2 km/h 40% 0.0 mm CLR
16:49 28.6 °C 13.7 °C 1011.2 hPa ESE 13.0 km/h 18.5 km/h 40% 0.0 mm CLR
16:54 28.7 °C 13.8 °C 1011.2 hPa East 13.0 km/h 18.0 km/h 40% 0.0 mm CLR
16:59 28.7 °C 14.2 °C 1011.2 hPa ESE 13.7 km/h 18.5 km/h 41% 0.0 mm CLR
17:04 28.6 °C 14.1 °C 1011.1 hPa ESE 13.7 km/h 25.9 km/h 41% 0.0 mm CLR
17:09 28.6 °C 13.7 °C 1011.1 hPa SE 18.0 km/h 29.6 km/h 40% 0.0 mm CLR
17:14 28.5 °C 13.6 °C 1011.1 hPa SE 18.0 km/h 22.2 km/h 40% 0.0 mm CLR
17:19 28.6 °C 13.7 °C 1010.9 hPa SSE 18.3 km/h 27.8 km/h 40% 0.0 mm CLR
17:24 28.6 °C 13.7 °C 1010.9 hPa SSE 18.3 km/h 22.2 km/h 40% 0.0 mm CLR
17:29 28.7 °C 13.8 °C 1010.9 hPa SSE 16.1 km/h 25.9 km/h 40% 0.0 mm CLR
17:34 28.6 °C 14.1 °C 1010.9 hPa ESE 16.1 km/h 22.2 km/h 41% 0.0 mm CLR
17:39 28.7 °C 14.2 °C 1010.9 hPa SE 15.6 km/h 18.5 km/h 41% 0.0 mm CLR
17:44 28.4 °C 13.9 °C 1010.9 hPa ESE 15.6 km/h 27.8 km/h 41% 0.0 mm CLR
17:49 28.2 °C 14.1 °C 1010.9 hPa SSE 17.2 km/h 25.9 km/h 42% 0.0 mm CLR
17:54 27.9 °C 14.2 °C 1010.9 hPa SE 17.2 km/h 29.6 km/h 43% 0.0 mm CLR
17:59 27.8 °C 14.1 °C 1010.9 hPa ESE 19.8 km/h 24.1 km/h 43% 0.0 mm CLR
18:04 27.8 °C 14.1 °C 1010.9 hPa South 19.8 km/h 18.5 km/h 43% 0.0 mm CLR
18:09 27.9 °C 14.2 °C 1010.9 hPa SSE 15.6 km/h 25.9 km/h 43% 0.0 mm CLR
18:14 27.8 °C 14.1 °C 1010.9 hPa SE 15.6 km/h 19.8 km/h 43% 0.0 mm CLR
18:19 27.6 °C 14.2 °C 1010.9 hPa South 15.6 km/h 29.6 km/h 44% 0.0 mm CLR
18:24 27.6 °C 14.2 °C 1010.9 hPa South 15.6 km/h 22.2 km/h 44% 0.0 mm CLR
18:29 27.4 °C 14.4 °C 1010.9 hPa SE 16.4 km/h 24.1 km/h 45% 0.0 mm CLR
18:34 27.4 °C 14.4 °C 1010.9 hPa SSE 16.4 km/h 27.8 km/h 45% 0.0 mm CLR
18:39 27.6 °C 14.6 °C 1010.9 hPa SSE 15.6 km/h 25.9 km/h 45% 0.0 mm CLR
18:44 27.7 °C 14.7 °C 1010.9 hPa SE 15.6 km/h 24.1 km/h 45% 0.0 mm CLR
18:49 27.4 °C 14.4 °C 1010.7 hPa SSE 18.0 km/h 22.2 km/h 45% 0.0 mm CLR
18:54 27.6 °C 14.6 °C 1010.7 hPa SE 18.0 km/h 20.1 km/h 45% 0.0 mm CLR
18:59 27.7 °C 14.7 °C 1010.7 hPa SSE 14.8 km/h 24.1 km/h 45% 0.0 mm CLR
19:04 27.6 °C 14.2 °C 1010.8 hPa ESE 14.8 km/h 18.5 km/h 44% 0.0 mm CLR
19:09 27.7 °C 14.0 °C 1010.8 hPa ESE 14.8 km/h 24.1 km/h 43% 0.0 mm CLR
19:14 27.7 °C 14.0 °C 1010.8 hPa ESE 14.8 km/h 18.5 km/h 43% 0.0 mm CLR
19:19 27.7 °C 14.0 °C 1010.7 hPa SE 11.9 km/h 22.2 km/h 43% 0.0 mm CLR
19:24 27.6 °C 13.9 °C 1010.7 hPa SE 11.9 km/h 22.2 km/h 43% 0.0 mm CLR
19:29 27.4 °C 13.7 °C 1010.7 hPa SE 14.8 km/h 22.2 km/h 43% 0.0 mm CLR
19:34 27.4 °C 13.7 °C 1010.7 hPa SSE 14.8 km/h 25.9 km/h 43% 0.0 mm CLR
19:39 27.4 °C 13.7 °C 1010.7 hPa SE 16.1 km/h 22.2 km/h 43% 0.0 mm CLR
19:44 27.3 °C 14.0 °C 1010.7 hPa SE 16.1 km/h 22.2 km/h 44% 0.0 mm CLR
19:49 27.2 °C 14.2 °C 1010.9 hPa SSE 15.6 km/h 24.1 km/h 45% 0.0 mm CLR
19:54 27.3 °C 14.7 °C 1010.9 hPa South 15.6 km/h 20.4 km/h 46% 0.0 mm CLR
19:59 27.3 °C 14.7 °C 1010.9 hPa South 13.7 km/h 14.8 km/h 46% 0.0 mm CLR
20:04 27.2 °C 14.6 °C 1011.0 hPa SSE 13.7 km/h 22.5 km/h 46% 0.0 mm CLR
20:09 26.9 °C 14.6 °C 1011.0 hPa SSE 12.2 km/h 25.6 km/h 47% 0.0 mm CLR
20:14 26.8 °C 14.9 °C 1011.0 hPa SSE 12.2 km/h 22.2 km/h 48% 0.0 mm CLR
20:19 26.6 °C 14.7 °C 1011.2 hPa South 13.7 km/h 14.8 km/h 48% 0.0 mm CLR
20:24 26.6 °C 14.7 °C 1011.2 hPa SSE 13.7 km/h 14.8 km/h 48% 0.0 mm CLR
20:29 26.5 °C 14.6 °C 1011.2 hPa South 11.1 km/h 18.5 km/h 48% 0.0 mm CLR
20:34 26.4 °C 14.2 °C 1011.2 hPa South 11.1 km/h 18.5 km/h 47% 0.0 mm CLR
20:39 26.4 °C 14.2 °C 1011.2 hPa South 10.3 km/h 14.8 km/h 47% 0.0 mm CLR
20:44 26.3 °C 14.1 °C 1011.2 hPa South 10.3 km/h 13.0 km/h 47% 0.0 mm CLR
20:49 26.2 °C 14.3 °C 1011.1 hPa South 11.1 km/h 14.8 km/h 48% 0.0 mm CLR
20:54 26.2 °C 14.3 °C 1011.1 hPa SSW 11.1 km/h 18.5 km/h 48% 0.0 mm CLR
20:59 26.1 °C 14.6 °C 1011.1 hPa SSW 11.1 km/h 18.5 km/h 49% 0.0 mm CLR
21:04 25.8 °C 13.6 °C 1011.1 hPa South 11.1 km/h 18.5 km/h 47% 0.0 mm CLR
21:09 25.8 °C 13.6 °C 1011.1 hPa South 13.0 km/h 15.6 km/h 47% 0.0 mm CLR
21:14 25.7 °C 13.2 °C 1011.1 hPa South 13.0 km/h 15.6 km/h 46% 0.0 mm CLR
21:19 25.6 °C 13.1 °C 1011.2 hPa SSW 10.3 km/h 16.7 km/h 46% 0.0 mm CLR
21:24 25.6 °C 13.1 °C 1011.2 hPa South 10.3 km/h 14.8 km/h 46% 0.0 mm CLR
21:29 25.6 °C 13.1 °C 1011.2 hPa SSW 9.5 km/h 8.4 km/h 46% 0.0 mm CLR
21:34 25.6 °C 13.1 °C 1011.4 hPa NW 9.5 km/h 7.4 km/h 46% 0.0 mm CLR
21:39 25.6 °C 12.4 °C 1011.4 hPa SSW 5.8 km/h 9.3 km/h 44% 0.0 mm CLR
21:44 25.6 °C 12.4 °C 1011.4 hPa SSE 5.8 km/h 14.8 km/h 44% 0.0 mm CLR
21:49 25.6 °C 12.1 °C 1011.4 hPa SW 7.6 km/h 11.1 km/h 43% 0.0 mm CLR
21:54 25.6 °C 12.1 °C 1011.4 hPa SSW 7.6 km/h 11.1 km/h 43% 0.0 mm CLR
21:59 25.6 °C 12.4 °C 1011.4 hPa SSW 5.8 km/h 8.4 km/h 44% 0.0 mm CLR
22:04 25.5 °C 11.7 °C 1011.5 hPa SSW 5.8 km/h 11.1 km/h 42% 0.0 mm CLR
22:09 25.5 °C 12.0 °C 1011.5 hPa SSE 7.6 km/h 13.0 km/h 43% 0.0 mm CLR
22:14 25.4 °C 13.3 °C 1011.5 hPa ESE 7.6 km/h 7.4 km/h 47% 0.0 mm CLR
22:19 25.2 °C 13.4 °C 1011.6 hPa SE 5.8 km/h 7.4 km/h 48% 0.0 mm CLR
22:24 24.8 °C 13.3 °C 1011.6 hPa ESE 5.8 km/h 7.4 km/h 49% 0.0 mm CLR
22:29 24.7 °C 13.3 °C 1011.6 hPa ESE 4.7 km/h 7.4 km/h 49% 0.0 mm CLR
22:34 24.5 °C 13.4 °C 1011.8 hPa East 4.7 km/h 9.3 km/h 50% 0.0 mm CLR
22:39 24.3 °C 13.5 °C 1011.8 hPa SE 4.7 km/h 8.4 km/h 51% 0.0 mm CLR
22:44 24.1 °C 13.6 °C 1011.8 hPa ESE 4.7 km/h 7.4 km/h 52% 0.0 mm CLR
22:49 24.0 °C 13.6 °C 1011.9 hPa SSE 4.7 km/h 5.6 km/h 52% 0.0 mm CLR
22:54 23.9 °C 13.4 °C 1011.9 hPa SSE 4.7 km/h 3.9 km/h 52% 0.0 mm CLR
22:59 23.9 °C 13.4 °C 1011.9 hPa SSE 2.9 km/h 4.7 km/h 52% 0.0 mm CLR
23:04 23.9 °C 13.4 °C 1012.0 hPa SSE 2.9 km/h   52% 0.0 mm CLR
23:09 23.9 °C 13.4 °C 1012.0 hPa Calm   4.7 km/h 52% 0.0 mm CLR
23:14 23.9 °C 13.4 °C 1012.0 hPa Calm   3.2 km/h 52% 0.0 mm CLR
23:19 23.9 °C 13.4 °C 1012.0 hPa West 2.9 km/h 9.3 km/h 52% 0.0 mm CLR
23:24 23.8 °C 13.7 °C 1012.0 hPa West 2.9 km/h 9.3 km/h 53% 0.0 mm CLR
23:29 23.8 °C 14.2 °C 1012.0 hPa West 6.9 km/h 13.0 km/h 55% 0.0 mm CLR
23:34 23.7 °C 14.7 °C 1012.0 hPa SW 6.9 km/h 9.3 km/h 57% 0.0 mm CLR
23:39 23.4 °C 14.9 °C 1012.0 hPa West 7.6 km/h 11.1 km/h 59% 0.0 mm CLR
23:44 23.3 °C 15.1 °C 1012.0 hPa WSW 7.6 km/h 9.3 km/h 60% 0.0 mm CLR
23:49 23.2 °C 15.0 °C 1012.1 hPa SSW 7.6 km/h 14.8 km/h 60% 0.0 mm CLR
23:54 23.0 °C 15.3 °C 1012.1 hPa SW 7.6 km/h 22.2 km/h 62% 0.0 mm CLR
23:59 22.8 °C 15.6 °C 1012.1 hPa South 11.9 km/h 11.1 km/h 64% 0.0 mm CLR
Murcia-Puente Tocinos, España
Compliments of Weather Underground - 2.75 mb

La estación de MeteoMurcia.com, publica sus datos en los siguientes proyectos:

Weather Underground PWS IMURCIAP2 Meteoclimatic www.awekas.at

W3Counter
Web Analytics